Flag for U.S.A. Weather past 2 weeks in New York, New York, U.S.A.

Now
39 °F

Low clouds.


Feels Like: 36 °F
Forecast: 39 / 48 °F
Wind: 5 mph from North

Location: New York City - Central Park

Current Time: Mar 31, 2015 at 5:47:32 PM

Latest Report: Mar 31, 2015 at 4:51 PM


Visibility: 10 mi

Pressure: 29.76 "Hg

Humidity: 82%

Dew point: 34 °F

Location of New YorkLocation

Historic Weather in New York — Graph

°F

New York temperature yesterday

Maximum temperature yesterday: 53 °F (at 2:51 PM)
Minimum temperature yesterday: 36 °F (at 6:51 AM)
Average temperature yesterday: 44 °F

Past Weeks' High & Low Weather Summary

 TemperatureHumidityPressure
High62 °F (Mar 26, 8:51 PM)93% (Mar 26, 1:02 PM)30.41 "Hg (Mar 26, 1:02 PM)
Low23 °F (Mar 23, 6:51 AM)16% (Mar 29, 7:51 PM)29.55 "Hg (Mar 17, 11:51 AM)
Average39 °F50%30.03 "Hg
* Reported Mar 16 3:51 PM — Mar 31 3:51 PM, New York, Weather by CustomWeather, © 2015

Note: Actual official high and low records may vary slightly from our data, if they occured in-between our weather recording intervals... More about our weather records

Advertising

New York weather history for previous 24 hours

 ConditionsComfort  
Time TempWeatherWind HumidityBarometerVisibility
3:51 PM
Tue, Mar 31
38 °FLight rain. Low clouds.3 mph86%29.77 "Hg9 mi
2:51 PM39 °FLight rain. Mostly cloudy.N/A76%29.78 "Hg8 mi
1:51 PM41 °FLight rain. Mostly cloudy.No wind58%29.79 "Hg8 mi
12:51 PM46 °FOvercast.3 mph37%29.80 "Hg10 mi
11:51 AM46 °FPartly sunny.No wind37%29.83 "Hg10 mi
10:51 AM45 °FPassing clouds.8 mph38%29.86 "Hg10 mi
9:51 AM44 °FSunny.N/A41%29.88 "Hg10 mi
8:51 AM41 °FSunny.7 mph47%29.88 "Hg10 mi
7:51 AM40 °FSunny.5 mph49%29.89 "Hg10 mi
6:51 AM40 °FClear.12 mph51%29.88 "Hg10 mi
5:51 AM41 °FClear.5 mph55%29.85 "Hg10 mi
4:51 AM42 °FPassing clouds.7 mph60%29.84 "Hg10 mi
3:51 AM42 °FClear.5 mph65%29.83 "Hg10 mi
2:51 AM43 °FPartly cloudy.5 mph62%29.83 "Hg10 mi
1:51 AM43 °FPassing clouds.8 mph65%29.84 "Hg10 mi
12:51 AM44 °FOvercast.8 mph60%29.85 "Hg10 mi
11:51 PM
Mon, Mar 30
44 °FPassing clouds.7 mph63%29.86 "Hg10 mi
10:51 PM45 °FPassing clouds.12 mph56%29.87 "Hg10 mi
9:51 PM47 °FPassing clouds.12 mph48%29.86 "Hg10 mi
8:51 PM50 °FClear.3 mph33%29.82 "Hg10 mi
7:51 PM51 °FPassing clouds.7 mph31%29.79 "Hg10 mi
6:51 PM52 °FPassing clouds.7 mph31%29.79 "Hg10 mi
5:51 PM51 °FMostly cloudy.N/A35%29.78 "Hg10 mi
Weather by CustomWeather, © 2015

See weather overviewHow to use our weather pages